Fort Meade, MD

6:11 PM EDT on July 30, 2016 (GMT -0400)
Tipton

Weather History for KFME - March, 2014

Change the Weather History Date:

Sunday, March 30, 2014

  Actual Average (KBWI) Record (KBWI)
Temperature  
Mean Temperature 44 °F 48 °F  
Max Temperature 55 °F 59 °F 89 °F (1998)
Min Temperature 32 °F 38 °F 21 °F (1887)
Degree Days  
Heating Degree Days 22 17  
Month to date heating degree days 650  
Since 1 July heating degree days 4245  
Cooling Degree Days 0 0  
Month to date cooling degree days 0  
Year to date cooling degree days 0  
Moisture  
Dew Point 40 °F    
Average Humidity 93    
Maximum Humidity 100    
Minimum Humidity 87    
Precipitation  
Precipitation 0.00 in 0.13 in 1.66 in (1974)
Month to date precipitation 3.77  
Year to date precipitation 9.72  
Snow  
Snow 0.00 in 0.00 in 2.60 in (2003)
Month to date snowfall 1.9  
Since 1 July snowfall 20.1  
Snow Depth -    
Sea Level Pressure  
Sea Level Pressure 29.64 in    
Wind  
Wind Speed 7 mph (NW)    
Max Wind Speed 14 mph    
Max Gust Speed 23 mph    
Visibility 5 miles    
Events      
T = Trace of Precipitation, MM = Missing Value Source: NWS Daily Summary

Daily Weather History Graph

Daily Weather History Graph

Search for Another Location

Airport or City:

Trip Planner

Search our weather history database for the weather conditions in past years. The results will help you decide how hot, cold, wet, or windy it might be!

Date:

Astronomy

Mar. 30, 2014 Rise Set
Actual Time 6:54 AM EDT 7:28 PM EDT
Civil Twilight 6:27 AM EDT 7:55 PM EDT
Nautical Twilight 5:56 AM EDT 8:27 PM EDT
Astronomical Twilight 5:23 AM EDT 9:00 PM EDT
Moon 6:39 AM EDT 7:38 PM EDT
Length of Visible Light 13h 27m
Length of Day
12h 34m
Waning Crescent, 0% of the Moon is Illuminated
Mar 30
Waning Crescent
Mar 30
New
Apr 7
First Quarter
Apr 15
Full
Apr 22
Last Quarter

Hourly Weather History & Observations

Time (EDT) Temp. Windchill Dew Point Humidity Pressure Visibility Wind Dir Wind Speed Gust Speed Precip Events Conditions
12:03 AM 55.4 °F - 53.6 °F 94% 29.57 in 0.8 mi Calm Calm - N/A   Overcast
12:24 AM 55.4 °F - 53.6 °F 94% 29.57 in 1.0 mi Calm Calm - N/A   Overcast
12:45 AM 55.4 °F - 53.6 °F 94% 29.57 in 0.8 mi Calm Calm - N/A   Overcast
1:03 AM 55.4 °F - 53.6 °F 94% 29.55 in 0.5 mi Calm Calm - N/A   Overcast
1:24 AM 55.4 °F - 53.6 °F 94% 29.55 in 1.0 mi Calm Calm - N/A   Mostly Cloudy
1:45 AM 55.4 °F - 53.6 °F 94% 29.55 in 1.5 mi East 3.5 mph - N/A   Overcast
2:03 AM 53.6 °F - 53.6 °F 100% 29.55 in 0.8 mi Calm Calm - N/A   Overcast
2:24 AM 55.4 °F - 53.6 °F 94% 29.53 in 0.8 mi Calm Calm - N/A   Overcast
2:45 AM 53.6 °F - 51.8 °F 94% 29.55 in 1.8 mi West 10.4 mph - N/A   Overcast
3:03 AM 50.0 °F - 48.2 °F 94% 29.54 in 10.0 mi WNW 9.2 mph 16.1 mph N/A   Overcast
3:24 AM 48.2 °F - 46.4 °F 93% 29.54 in 7.0 mi WNW 9.2 mph - N/A   Overcast
3:45 AM 46.4 °F 42.9 °F 46.4 °F 100% 29.53 in 10.0 mi WNW 6.9 mph - N/A   Overcast
4:03 AM 46.4 °F 41.5 °F 44.6 °F 93% 29.52 in 10.0 mi NW 10.4 mph 18.4 mph N/A   Overcast
4:24 AM 46.4 °F 41.9 °F 44.6 °F 93% 29.52 in 7.0 mi WNW 9.2 mph 16.1 mph N/A   Overcast
4:45 AM 46.4 °F 41.5 °F 44.6 °F 93% 29.51 in 10.0 mi NW 10.4 mph 19.6 mph N/A   Overcast
5:03 AM 46.4 °F 42.9 °F 44.6 °F 93% 29.52 in 10.0 mi NW 6.9 mph 19.6 mph N/A   Overcast
5:24 AM 46.4 °F 41.9 °F 44.6 °F 93% 29.52 in 10.0 mi NW 9.2 mph 18.4 mph N/A   Overcast
5:45 AM 46.4 °F 43.5 °F 44.6 °F 93% 29.52 in 10.0 mi NNW 5.8 mph - N/A   Overcast
6:06 AM 46.4 °F 41.9 °F 44.6 °F 93% 29.53 in 10.0 mi NNW 9.2 mph 17.3 mph N/A   Overcast
6:24 AM 46.4 °F 42.4 °F 44.6 °F 93% 29.54 in 5.0 mi NNW 8.1 mph - N/A   Overcast
6:45 AM 46.4 °F 42.9 °F 44.6 °F 93% 29.56 in 10.0 mi NW 6.9 mph - N/A   Scattered Clouds
7:06 AM 44.6 °F 38.4 °F 42.8 °F 93% 29.56 in 7.0 mi NW 12.7 mph 18.4 mph N/A   Mostly Cloudy
7:24 AM 44.6 °F 38.4 °F 42.8 °F 93% 29.57 in 3.0 mi NW 12.7 mph 20.7 mph N/A   Overcast
7:45 AM 44.6 °F 38.8 °F 42.8 °F 93% 29.59 in 2.0 mi NW 11.5 mph 19.6 mph N/A   Overcast
8:06 AM 42.8 °F 36.6 °F 41.0 °F 93% 29.58 in 2.5 mi NNW 11.5 mph 21.9 mph N/A   Overcast
8:24 AM 42.8 °F 37.0 °F 41.0 °F 93% 29.57 in 2.5 mi NNW 10.4 mph 16.1 mph N/A   Unknown
8:45 AM 44.6 °F 39.7 °F 41.0 °F 87% 29.57 in 7.0 mi NNW 9.2 mph 17.3 mph N/A   Mostly Cloudy
9:06 AM 42.8 °F 35.8 °F 41.0 °F 93% 29.58 in 10.0 mi NNW 13.8 mph 23.0 mph N/A   Overcast
9:24 AM 42.8 °F 36.2 °F 41.0 °F 93% 29.59 in 10.0 mi NNW 12.7 mph 20.7 mph N/A   Overcast
9:45 AM 42.8 °F 36.2 °F 41.0 °F 93% 29.59 in 3.0 mi NW 12.7 mph 19.6 mph N/A   Overcast
10:06 AM 42.8 °F 36.2 °F 41.0 °F 93% 29.60 in 3.0 mi NW 12.7 mph 19.6 mph N/A   Overcast
10:24 AM 42.8 °F 35.8 °F 39.2 °F 87% 29.60 in 2.0 mi NW 13.8 mph 21.9 mph N/A   Overcast
10:45 AM 41.0 °F 33.9 °F 37.4 °F 87% 29.62 in 2.0 mi NW 12.7 mph 21.9 mph N/A   Overcast
11:06 AM 41.0 °F 35.2 °F 37.4 °F 87% 29.63 in 2.0 mi NW 9.2 mph 20.7 mph N/A   Unknown
11:24 AM 41.0 °F 33.9 °F 39.2 °F 93% 29.63 in 1.5 mi NW 12.7 mph 18.4 mph N/A   Mostly Cloudy
11:45 AM 41.0 °F 35.2 °F 37.4 °F 87% 29.63 in 2.0 mi NW 9.2 mph 19.6 mph N/A   Unknown
12:06 PM 41.0 °F 33.9 °F 37.4 °F 87% 29.63 in 2.5 mi NNW 12.7 mph 21.9 mph N/A   Unknown
12:24 PM 41.0 °F 34.7 °F 37.4 °F 87% 29.62 in 3.0 mi NW 10.4 mph 19.6 mph N/A   Unknown
12:45 PM 41.0 °F 35.8 °F 37.4 °F 87% 29.63 in 2.5 mi WNW 8.1 mph - N/A   Unknown
1:06 PM 41.0 °F 34.7 °F 37.4 °F 87% 29.62 in 4.0 mi NW 10.4 mph 23.0 mph N/A   Mostly Cloudy
1:24 PM 41.0 °F 34.3 °F 37.4 °F 87% 29.62 in 4.0 mi NW 11.5 mph 18.4 mph N/A   Overcast
1:45 PM 41.0 °F 34.7 °F 37.4 °F 87% 29.63 in 5.0 mi NW 10.4 mph 20.7 mph N/A   Overcast
2:06 PM 39.2 °F 32.0 °F 37.4 °F 93% 29.62 in 4.0 mi NW 11.5 mph 18.4 mph N/A   Overcast
2:27 PM 39.2 °F 31.2 °F 35.6 °F 87% 29.63 in 4.0 mi NW 13.8 mph 19.6 mph N/A   Overcast
2:45 PM 39.2 °F 32.5 °F 35.6 °F 87% 29.64 in 3.0 mi WNW 10.4 mph 20.7 mph N/A   Overcast
3:06 PM 37.4 °F 31.4 °F 35.6 °F 93% 29.64 in 4.0 mi WNW 8.1 mph 16.1 mph N/A   Overcast
3:27 PM 37.4 °F 30.8 °F 35.6 °F 93% 29.64 in 10.0 mi NW 9.2 mph - N/A   Overcast
3:45 PM 37.4 °F 30.8 °F 35.6 °F 93% 29.65 in 7.0 mi NW 9.2 mph - N/A   Overcast
4:06 PM 35.6 °F 28.6 °F 33.8 °F 93% 29.66 in 3.0 mi NW 9.2 mph 21.9 mph N/A   Overcast
4:27 PM 32.0 °F 25.6 °F 32.0 °F 100% 29.67 in 1.0 mi WNW 6.9 mph - N/A   Overcast
4:45 PM 32.0 °F 24.8 °F 32.0 °F 100% 29.67 in 1.2 mi WNW 8.1 mph - N/A   Overcast
5:06 PM 32.0 °F 24.2 °F 32.0 °F 100% 29.68 in 1.5 mi WNW 9.2 mph - N/A   Mostly Cloudy
5:27 PM 33.8 °F 25.8 °F 32.0 °F 93% 29.68 in 2.5 mi NW 10.4 mph 17.3 mph N/A   Overcast
5:45 PM 33.8 °F 25.3 °F 32.0 °F 93% 29.69 in 2.0 mi WNW 11.5 mph 17.3 mph N/A   Unknown
6:06 PM 33.8 °F 25.3 °F 32.0 °F 93% 29.70 in 3.0 mi WNW 11.5 mph - N/A   Unknown
6:27 PM 33.8 °F 27.0 °F 32.0 °F 93% 29.72 in 2.5 mi NW 8.1 mph - N/A   Overcast
6:45 PM 33.8 °F 25.8 °F 32.0 °F 93% 29.73 in 3.0 mi NW 10.4 mph 16.1 mph N/A   Unknown
7:06 PM 33.8 °F 27.0 °F 32.0 °F 93% 29.74 in 3.0 mi NW 8.1 mph 16.1 mph N/A   Overcast
7:27 PM 33.8 °F 27.0 °F 33.8 °F 100% 29.74 in 5.0 mi NW 8.1 mph 17.3 mph N/A   Scattered Clouds
7:45 PM 35.6 °F 30.7 °F 33.8 °F 93% 29.75 in 5.0 mi NW 5.8 mph - N/A   Mostly Cloudy
8:06 PM 35.6 °F 29.9 °F 33.8 °F 93% 29.76 in 7.0 mi NNW 6.9 mph - N/A   Scattered Clouds
8:27 PM 35.6 °F 28.6 °F 33.8 °F 93% 29.77 in 7.0 mi NW 9.2 mph - N/A   Mostly Cloudy
8:45 PM 35.6 °F 29.2 °F 33.8 °F 93% 29.78 in 10.0 mi NNW 8.1 mph - N/A   Overcast
9:06 PM 37.4 °F 29.8 °F 35.6 °F 93% 29.79 in 10.0 mi NNW 11.5 mph 19.6 mph N/A   Mostly Cloudy
9:27 PM 37.4 °F 32.1 °F 35.6 °F 93% 29.79 in 10.0 mi NW 6.9 mph - N/A   Scattered Clouds
9:45 PM 37.4 °F 31.4 °F 35.6 °F 93% 29.80 in 10.0 mi NNW 8.1 mph - N/A   Mostly Cloudy
10:06 PM 37.4 °F 30.3 °F 35.6 °F 93% 29.81 in 10.0 mi NNW 10.4 mph 16.1 mph N/A   Mostly Cloudy
10:27 PM 37.4 °F 32.8 °F 33.8 °F 87% 29.81 in 10.0 mi NNW 5.8 mph - N/A   Overcast
10:48 PM 37.4 °F 32.1 °F 35.6 °F 93% 29.81 in 10.0 mi NNW 6.9 mph - N/A   Mostly Cloudy
11:06 PM 37.4 °F 32.1 °F 35.6 °F 93% 29.81 in 10.0 mi NNW 6.9 mph - N/A   Mostly Cloudy
11:27 PM 37.4 °F 32.8 °F 35.6 °F 93% 29.82 in 10.0 mi NNW 5.8 mph - N/A   Overcast
11:48 PM 37.4 °F 32.8 °F 35.6 °F 93% 29.82 in 10.0 mi NNW 5.8 mph - N/A   Overcast